Location: Syracuse
(43.0480°N, 76.1480°W)
Time: 15:25:27
(UTC-05:00)

Daily predictions for brighter satellites

Satellite Brightness Start Highest point End
(mag) Time Altitude Azimuth Time Altitude Azimuth Time Altitude Azimuth
Cosmos 1300 2.9 17:31:06 10° N 17:34:52 51° E 17:38:36 10° SSE
Cosmos 332 Rocket 4.2 17:30:17 10° SSW 17:35:05 68° WNW 17:39:57 10° NNE
COSMOS 2428 3.7 17:31:06 10° SW 17:36:35 47° WNW 17:42:06 10° NNE
SL-16 R/B 3.2 17:32:10 10° SSE 17:36:50 27° ESE 17:41:31 10° NE
Cosmos 1125 Rocket 3.5 17:33:55 10° NNW 17:39:09 85° ENE 17:44:21 10° SSE
Lacrosse 4 Rocket 3.2 17:37:40 10° NNE 17:39:36 13° NE 17:41:33 10° ENE
Cosmos 44 3.4 17:35:28 10° SSW 17:40:44 81° ESE 17:45:47 10° NE
Cosmos 1515 Rocket 3.7 17:36:32 10° N 17:41:02 82° W 17:45:27 10° S
COSMOS 2441 4.4 17:36:34 10° SSE 17:41:22 67° ENE 17:46:11 10° N
SL-14 R/B 3.4 17:40:20 10° S 17:44:11 56° E 17:48:06 10° NNE
Cosmos 841 Rocket 4.4 17:39:52 10° SW 17:44:59 51° WNW 17:50:08 10° N
Cosmos 1340 Rocket 3.5 17:41:59 10° SSE 17:45:31 33° E 17:49:04 10° NNE
Cosmos 1484 Rocket 2.9 17:43:13 10° SSE 17:47:04 55° ENE 17:51:00 10° N
ALOS 3.9 17:45:21 10° E 17:47:37 14° ENE 17:49:54 10° NNE
Cosmos 2297 4.0 17:42:19 10° NNW 17:47:47 45° ENE 17:53:16 10° SE
Cosmos 1805 Rocket 4.4 17:44:46 10° SSE 17:48:37 29° E 17:52:29 10° NNE
SKYMED 2 4.0 17:44:54 10° NNE 17:49:02 41° E 17:53:08 10° S
Meteor 2-10 4.1 17:45:50 10° N 17:50:52 57° ENE 17:56:02 10° SSE
Cosmos 1844 Rocket 4.4 17:45:43 10° NW 17:50:54 38° WSW 17:56:01 10° S
Thor Agena Rocket 3.6 17:47:13 10° NNE 17:52:30 90° WNW 17:57:40 10° SSW
Cosmos 2084 4.2 17:49:45 10° WSW 17:53:26 42° NW 17:57:04 10° NNE
Cosmos 1500 Rocket 3.9 17:51:09 10° SSW 17:55:27 67° W 17:59:50 10° N
SPOT 3 Rocket 4.0 17:51:17 10° S 17:56:23 66° WSW 18:01:33 10° NNW
Cosmos 2058 2.9 17:54:27 10° S 17:58:29 61° E 18:02:32 10° NNE
Meteor 1-28 Rocket 3.8 17:56:26 10° NNE 17:59:52 34° E 18:03:17 10° SSE
Cosmos 1461 3.3 17:57:26 10° S 18:01:23 42° ESE 18:04:38 14° NE
NOSS 0 Rocket 4.2 17:55:58 10° SSW 18:02:11 74° WNW 18:08:25 10° NNE
Cosmos 371 Rocket 4.2 17:58:52 10° SW 18:03:32 49° WNW 18:08:13 10° N
Sich 1 4.0 18:00:09 10° SSE 18:03:55 28° E 18:07:42 10° NNE
SMAP 4.3 17:59:56 10° S 18:04:23 46° W 18:08:53 10° NNW
METEOR-M 4.4 18:07:25 10° SE 18:12:29 46° ENE 18:17:35 10° N
Cosmos 1633 Rocket 3.8 18:08:56 10° SSE 18:12:45 30° E 18:16:35 10° NNE
Cosmos 1980 4.3 18:11:56 10° SW 18:17:31 58° WNW 18:23:08 10° NNE
Abrixas 2.6 18:15:10 10° WSW 18:18:05 62° NNW 18:19:25 28° NE
Cosmos 1356 Rocket 3.6 18:15:35 10° SSE 18:19:21 43° E 18:23:02 11° NNE
ATLAS 5 CENTAUR R/B 4.1 18:19:37 10° N 18:22:24 13° NNE 18:23:47 13° NE
Meteor 1-11 4.4 18:16:49 10° SSW 18:22:31 80° W 18:28:19 10° N
NOAA 12 4.0 18:19:45 10° SSE 18:24:54 63° ENE 18:30:07 10° N
Lacrosse 5 rocket 2.6 18:21:32 10° WNW 18:25:06 39° SW 18:28:50 10° SSE
FREGAT/IRIS 3.0 18:24:48 10° SE 18:27:41 39° ENE 18:30:35 10° N
Aureole 2 Rocket 3.5 18:24:16 10° SW 18:27:58 53° WNW 18:32:00 10° NNE
BREEZE-M DEB (TANK) 1.8 18:30:12 10° SW 18:32:31 77° SSE 18:33:02 50° ENE
Cosmos 1626 2.0 18:30:59 10° S 18:34:42 72° E 18:38:10 12° NNE
Cosmos 1707 Rocket 3.4 18:32:07 10° N 18:36:28 85° E 18:40:49 10° S
Cosmos 2219 Rocket 3.9 18:31:40 10° WSW 18:36:30 29° NW 18:41:23 10° N
COSMO-SKYMED 1 3.1 18:32:49 10° N 18:37:06 58° WNW 18:41:22 10° SSW
FengYun 1-2 T 4.5 18:33:30 10° SE 18:38:45 45° ENE 18:43:59 10° N
Cosmos 773 Rocket 4.1 18:34:14 10° S 18:39:11 49° ESE 18:42:09 23° NE
Cosmos 2333 Rocket 3.7 18:34:05 10° WSW 18:39:12 34° NW 18:44:22 10° N
Cosmos 304 Rocket 4.0 18:35:03 10° SSW 18:39:50 71° WNW 18:44:39 10° NNE
BREEZE M DEB (TANK) 1.8 18:38:15 10° WNW 18:40:38 50° SSW 18:40:58 44° S
Cosmos 1943 Rocket 4.2 18:38:49 10° NNE 18:39:28 11° NNE 18:39:28 11° NNE
Cosmos 1603 4.3 18:36:26 10° SSE 18:41:24 33° ESE 18:42:36 30° E
USA 215 3.2 18:37:35 15° ESE 18:43:07 73° NE 18:49:40 10° NW
Orbus 7S? 4.4 18:43:42 10° NW 18:47:47 58° NE 18:53:54 19° ESE
Cosmos 1666 Rocket 3.4 18:43:29 10° S 18:47:50 88° E 18:52:14 10° N
Cosmos 2278 Rocket 4.2 18:43:00 10° NW 18:47:51 29° WSW 18:52:40 10° SSW
CZ-4C R/B 4.2 18:45:09 10° NNW 18:49:27 17° NNE 18:50:36 17° NE
Cosmos 1455 2.1 18:47:02 10° N 18:50:50 85° W 18:54:40 10° S
Resurs 01 Rocket 1.8 18:49:20 30° SE 18:51:06 47° ENE 18:55:23 10° N
SJ-6B 2.9 18:49:57 10° S 18:54:02 83° WSW 18:58:12 10° NNW
Cosmos 1703 4.2 18:50:36 10° SSW 18:54:22 48° W 18:58:10 10° N
Lacrosse 5 3.7 18:55:07 10° NW 18:58:28 17° N 18:59:06 17° NNE
TIMED 4.4 19:03:15 10° NNW 19:07:39 87° ENE 19:09:10 41° SSE
Cosmos 2237 Rocket 4.1 19:08:47 10° WSW 19:13:22 25° NW 19:18:00 10° N
Cosmos 2369 Rocket 3.1 19:11:26 10° N 19:15:08 32° NNE 19:15:08 32° NNE
Lacrosse 4 Rocket 1.5 19:14:48 10° NNW 19:18:28 69° WNW 19:18:28 69° WNW
SL-16 R/B 3.1 19:15:17 10° SW 19:20:41 45° WNW 19:24:59 16° N
Cosmos 1470 Rocket 4.2 19:16:27 10° S 19:19:23 42° S 19:19:23 42° S
Cosmos 2242 Rocket 4.1 19:18:22 10° NNW 19:22:44 59° W 19:27:06 10° S
ALOS 2.4 19:19:48 10° S 19:24:27 73° W 19:29:08 10° NNW
Spot 2 Rocket 3.5 19:21:27 10° S 19:26:29 80° WSW 19:31:33 10° NNW
USA 229 DEB 3.6 19:20:23 10° SW 19:27:15 90° SW 19:29:44 44° NE
USA 229 3.6 19:20:29 10° SSW 19:27:22 89° E 19:29:46 45° NE
Cosmos 2026 Rocket 3.8 19:22:31 10° S 19:28:39 67° E 19:29:04 65° ENE
Cosmos 292 Rocket 4.2 19:31:31 10° SSW 19:35:12 54° SSW 19:35:12 54° SSW
Iridium 4 Rocket 3.9 19:32:28 10° SSW 19:36:48 48° W 19:38:17 33° NNW
FENGYUN 3A 4.5 19:44:37 10° S 19:49:46 48° W 19:54:59 10° NNW
Cosmos 923 Rocket 4.5 19:45:47 10° SW 19:50:53 57° WNW 19:50:56 57° WNW
Cosmos 1680 Rocket 4.3 19:52:32 10° SSW 19:56:19 46° SW 19:56:19 46° SW
ATLAS 5 CENTAUR R/B 4.0 20:03:06 10° NNW 20:05:21 23° NNW 20:05:21 23° NNW
USA 215 4.5 20:24:57 31° SSW 20:26:26 34° SW 20:32:18 10° WNW
Resurs 01 Rocket 4.3 20:26:51 16° WSW 20:27:49 17° W 20:30:45 10° NW
CZ-4C R/B 4.3 20:33:01 10° NNW 20:35:48 25° NNW 20:35:48 25° NNW
